Flag for Switzerland Weather past 2 weeks in Bern, Bern, Switzerland

Now
48 °F

Partly cloudy.


Feels Like: 47 °F
Forecast: 33 / 60 °F
Wind: 3 mph from North

Location: Bern / Belp

Current Time: Apr 18, 2015 at 5:53:01 AM

Latest Report: Apr 18, 2015 at 5:20 AM


Visibility: N/A

Pressure: 30.04 "Hg

Humidity: 87%

Dew point: 45 °F

Location of BernLocation

Historic Weather in Bern — Graph

°F

Bern temperature yesterday

Maximum temperature yesterday: 61 °F (at 4:20 PM)
Minimum temperature yesterday: 46 °F (at 6:50 AM)
Average temperature yesterday: 53 °F

Past Weeks' High & Low Weather Summary

 TemperatureHumidityPressure
High75 °F (Apr 15, 6:50 PM)100% (Apr 3, 4:20 AM)30.48 "Hg (Apr 3, 4:20 AM)
Low25 °F (Apr 6, 3:50 AM)17% (Apr 14, 6:20 PM)29.80 "Hg (Apr 4, 4:50 PM)
Average48 °F69%30.22 "Hg
* Reported Apr 3 4:20 AM — Apr 18 4:20 AM, Bern, Weather by CustomWeather, © 2015

Note: Actual official high and low records may vary slightly from our data, if they occured in-between our weather recording intervals... More about our weather records

Advertising

Bern weather history for previous 24 hours

 ConditionsComfort  
Time TempWeatherWind HumidityBarometerVisibility
4:20 AM
Sat, Apr 18
48 °FPartly cloudy.5 mph100%30.04 "HgN/A
3:50 AM48 °FDrizzle. Overcast.2 mph100%30.04 "HgN/A
3:20 AM48 °FPassing clouds.2 mph100%30.04 "HgN/A
2:50 AM48 °FLight rain. Passing clouds.1 mph100%30.04 "Hg6 mi
2:20 AM48 °FLight rain. Passing clouds.1 mph100%30.04 "Hg6 mi
1:50 AM48 °FRain. Passing clouds.2 mph100%30.04 "Hg3 mi
1:20 AM50 °FLight rain. Partly cloudy.3 mph94%30.04 "HgN/A
12:50 AM50 °FRain. Partly cloudy.3 mph94%30.04 "HgN/A
12:20 AM50 °FHeavy rain. Passing clouds.3 mph94%30.04 "Hg4 mi
11:50 PM
Fri, Apr 17
52 °FLight rain. Partly cloudy.3 mph94%30.01 "Hg6 mi
11:20 PM52 °FLight rain. Partly cloudy.5 mph94%30.01 "Hg5 mi
10:50 PM52 °FLight rain. Fog.6 mph94%30.01 "Hg2 mi
10:20 PM52 °FLight rain. Passing clouds.6 mph94%30.01 "HgN/A
9:50 PM55 °FPassing clouds.10 mph77%29.98 "HgN/A
9:20 PM57 °FPassing clouds.6 mph67%29.98 "HgN/A
8:50 PM57 °FPartly sunny.5 mph67%29.98 "HgN/A
8:20 PM57 °FPartly sunny.7 mph67%29.98 "HgN/A
7:50 PM57 °FPartly sunny.7 mph67%29.98 "HgN/A
7:20 PM59 °FBroken clouds.7 mph68%29.95 "HgN/A
6:50 PM57 °FPartly sunny.10 mph67%29.95 "HgN/A
6:20 PM59 °FPartly sunny.10 mph68%29.95 "HgN/A
5:50 PM57 °FPartly sunny.9 mph72%29.95 "HgN/A
5:20 PM57 °FOvercast.13 mph72%29.95 "HgN/A
4:50 PM61 °FPartly sunny.14 mph59%29.95 "HgN/A
4:20 PM61 °FPartly sunny.12 mph63%29.95 "HgN/A
3:50 PM59 °FPartly sunny.13 mph63%29.95 "HgN/A
3:20 PM59 °FBroken clouds.13 mph63%29.95 "HgN/A
2:50 PM59 °FPartly sunny.14 mph63%29.98 "HgN/A
2:20 PM59 °FPartly sunny.12 mph68%29.98 "HgN/A
1:50 PM59 °FPartly sunny.13 mph63%29.98 "HgN/A
1:20 PM57 °FBroken clouds.13 mph67%29.98 "HgN/A
12:50 PM57 °FBroken clouds.9 mph72%29.98 "HgN/A
12:20 PM54 °FPartly sunny.6 mph94%29.98 "HgN/A
11:50 AM54 °FBroken clouds.3 mph88%29.98 "HgN/A
11:20 AM54 °FBroken clouds.3 mph94%29.98 "HgN/A
10:50 AM52 °FPartly sunny.2 mph94%29.98 "HgN/A
10:20 AM52 °FPartly sunny.2 mph94%29.98 "HgN/A
9:50 AM50 °FPartly sunny.2 mph100%29.98 "HgN/A
9:20 AM50 °FPartly sunny.1 mph100%29.98 "HgN/A
8:50 AM50 °FPartly sunny.2 mph94%29.95 "HgN/A
8:20 AM48 °FRain. Partly sunny.1 mph100%29.95 "Hg4 mi
7:50 AM48 °FPartly sunny.1 mph100%29.95 "HgN/A
7:20 AM48 °FPassing clouds.1 mph94%29.95 "HgN/A
6:50 AM46 °FPartly cloudy.1 mph100%29.95 "HgN/A
6:20 AM48 °FPartly cloudy.1 mph94%29.95 "HgN/A
5:20 AM48 °FMostly cloudy.1 mph94%29.95 "HgN/A
Weather by CustomWeather, © 2015

See weather overviewHow to use our weather pages